Flag for U.S.A. Weather past 2 weeks in Sacramento, California, U.S.A.

Now
63 °F

Clear.


Feels Like: 63 °F
Forecast: 61 / 90 °F
Wind: 8 mph from South

Location: Sacramento Executive Airport

Current Time: Aug 2, 2015 at 7:36:34 AM

Latest Report: Aug 2, 2015 at 6:53 AM


Visibility: 10 mi

Pressure: 29.89 "Hg

Humidity: 84%

Dew point: 58 °F

Location of SacramentoLocation

Historic Weather in Sacramento — Graph

°F

Sacramento temperature yesterday

Maximum temperature yesterday: 91 °F (at 3:53 PM)
Minimum temperature yesterday: 63 °F (at 5:53 AM)
Average temperature yesterday: 74 °F

Past Weeks' High & Low Weather Summary

 TemperatureHumidityPressure
High106 °F (Jul 29, 4:53 PM)87% (Jul 26, 3:53 AM)30.09 "Hg (Jul 26, 3:53 AM)
Low59 °F (Jul 23, 3:53 AM)7% (Jul 27, 5:53 PM)29.72 "Hg (Jul 21, 5:53 PM)
Average76 °F52%29.89 "Hg
* Reported Jul 18 5:53 AM — Aug 2 5:53 AM, Sacramento, Weather by CustomWeather, © 2015

Note: Actual official high and low records may vary slightly from our data, if they occured in-between our weather recording intervals... More about our weather records

Advertising

Sacramento weather history for previous 24 hours

 ConditionsComfort  
Time TempWeatherWind HumidityBarometerVisibility
5:53 AM
Sun, Aug 2
63 °FClear.7 mph84%29.87 "Hg10 mi
4:53 AM63 °FClear.7 mph84%29.86 "Hg10 mi
3:53 AM64 °FClear.7 mph81%29.88 "Hg10 mi
2:53 AM65 °FClear.7 mph78%29.88 "Hg10 mi
1:53 AM66 °FClear.6 mph75%29.87 "Hg10 mi
12:53 AM66 °FClear.6 mph75%29.88 "Hg10 mi
11:53 PM
Sat, Aug 1
68 °FClear.6 mph68%29.89 "Hg10 mi
10:53 PM69 °FClear.8 mph66%29.89 "Hg10 mi
9:53 PM72 °FClear.5 mph59%29.88 "Hg10 mi
8:53 PM75 °FSunny.9 mph50%29.85 "Hg10 mi
7:53 PM80 °FSunny.12 mph42%29.83 "Hg10 mi
6:53 PM85 °FSunny.12 mph37%29.82 "Hg10 mi
5:53 PM88 °FSunny.12 mph35%29.83 "Hg10 mi
4:53 PM91 °FSunny.9 mph33%29.83 "Hg10 mi
3:53 PM91 °FSunny.6 mph33%29.85 "Hg10 mi
2:53 PM88 °FSunny.6 mph38%29.87 "Hg10 mi
1:53 PM85 °FSunny.7 mph40%29.90 "Hg10 mi
12:53 PM81 °FSunny.7 mph45%29.93 "Hg10 mi
11:53 AM77 °FSunny.9 mph50%29.95 "Hg10 mi
10:53 AM74 °FSunny.12 mph56%29.96 "Hg10 mi
9:53 AM70 °FSunny.14 mph61%29.96 "Hg10 mi
8:53 AM67 °FSunny.10 mph68%29.97 "Hg10 mi
7:53 AM64 °FSunny.13 mph75%29.96 "Hg10 mi
Weather by CustomWeather, © 2015

See weather overviewHow to use our weather pages